This is the latest recevied weather packets stored in our database for station/object OM8AKX-12. If no packets are shown the sender has not sent any weather packets the latest 10 day(s).
| Time | Temp. | Humidity | Pressure | Rain* | Wind** | Luminosity | Snow |
|---|---|---|---|---|---|---|---|
| 1787790973 | 17.78° C | 57% | 1014.7 hPa | - | - | - | - |
| 1787790073 | 17.78° C | 57% | 1014.8 hPa | - | - | - | - |
| 1787789173 | 17.78° C | 57% | 1014.9 hPa | - | - | - | - |
| 1787788284 | 17.78° C | 59% | 1015.9 hPa | - | - | - | - |
| 1787788273 | 17.78° C | 59% | 1015 hPa | - | - | - | - |
| 1787787373 | 17.78° C | 58% | 1014.7 hPa | - | - | - | - |
| 1787786473 | 17.78° C | 58% | 1015 hPa | - | - | - | - |
| 1787785573 | 18.33° C | 53% | 1014.9 hPa | - | - | - | - |
| 1787784672 | 18.89° C | 52% | 1014.9 hPa | - | - | - | - |
| 1787783772 | 18.89° C | 52% | 1014.9 hPa | - | - | - | - |
| 1787782872 | 18.33° C | 54% | 1014.9 hPa | - | - | - | - |
| 1787781972 | 18.33° C | 54% | 1014.9 hPa | - | - | - | - |
| 1787781072 | 18.33° C | 54% | 1014.8 hPa | - | - | - | - |
| 1787780172 | 18.33° C | 55% | 1014.7 hPa | - | - | - | - |
| 1787779272 | 18.33° C | 56% | 1014.8 hPa | - | - | - | - |
| 1787778372 | 17.78° C | 56% | 1015 hPa | - | - | - | - |
| 1787777472 | 18.33° C | 55% | 1014.9 hPa | - | - | - | - |
| 1787776572 | 18.33° C | 54% | 1014.9 hPa | - | - | - | - |
| 1787775672 | 18.89° C | 53% | 1014.9 hPa | - | - | - | - |
| 1787774772 | 18.89° C | 53% | 1014.9 hPa | - | - | - | - |
| 1787773872 | 18.89° C | 52% | 1014.9 hPa | - | - | - | - |
| 1787772972 | 18.89° C | 53% | 1014.9 hPa | - | - | - | - |
| 1787772072 | 18.89° C | 53% | 1014.8 hPa | - | - | - | - |
| 1787771172 | 19.44° C | 53% | 1014.5 hPa | - | - | - | - |
| 1787770272 | 19.44° C | 52% | 1014.6 hPa | - | - | - | - |
* Rain since midnight (hover to see other rain measurements)
** Current wind speed in m/s (hover to see current wind gust speed)